Regional Weather Roundup
Issued by NWS

Current Version | Previous Version | Text Only | Print | Product List | Glossary On
Versions: 1 2 3 4 5 6 7 8 9 10 11 12 13 14 15 16 17 18 19 20 21 22 23 24 25 26 27 28
000
ASUS46 KPQR 261010
RWROR

OREGON REGIONAL WEATHER ROUNDUP
NATIONAL WEATHER SERVICE PORTLAND OR
300 AM PDT FRI AUG 26 2016

NOTE: "FAIR" INDICATES FEW OR NO CLOUDS BELOW 12,000 FEET WITH
NO SIGNIFICANT WEATHER AND/OR OBSTRUCTIONS TO VISIBILITY.

ORZ001>013-261100-
NORTHWEST OREGON


CITY           SKY/WX    TMP DP  RH WIND       PRES   REMARKS
ASTORIA        FAIR      59  54  83 CALM      29.91F
NEWPORT        FAIR      61  54  77 CALM      29.90S
PORTLAND       FAIR      65  54  67 W3        29.91F
VANCOUVER WA   FAIR      62  51  67 CALM      29.91S
SCAPPOOSE      FAIR      64  49  57 W3        29.91S
HILLSBORO      FAIR      62  49  62 CALM      29.91S
AURORA         FAIR      68  49  50 NE6       29.91S
MCMINNVILLE    FAIR      67  49  52 CALM      29.90F
SALEM          FAIR      64  48  56 CALM      29.89S
CORVALLIS        N/A     61  46  59 W5        29.89F
EUGENE         FAIR      61  42  49 E5        29.88S
$$

ORZ021-028-261100-
SOUTHWEST OREGON


CITY           SKY/WX    TMP DP  RH WIND       PRES   REMARKS
NORTH BEND     FAIR      52  50  93 W3        29.88S
BROOKINGS      LGT RAIN  51  50  96 CALM      29.88F VSB 1/2
ROSEBURG       FAIR      65  45  48 CALM      29.87S
SEXTON SUMMIT  FAIR      68  36  30 E6        30.02S
MEDFORD        FAIR      67  39  35 CALM      29.91S
$$

ORZ014>016-041-261100-
COLUMBIA GORGE


CITY           SKY/WX    TMP DP  RH WIND       PRES   REMARKS
TROUTDALE      FAIR      62  52  69 CALM      29.91S
THE DALLES     FAIR      61  40  45 SE6       29.94S
$$

ORZ029>031-041-044-049-050-061>064-502-503-505>511-261100-
EASTERN OREGON


CITY           SKY/WX    TMP DP  RH WIND       PRES   REMARKS
REDMOND        FAIR      49  27  42 S5        30.06S
BEND             N/A    N/A N/A N/A MISG        N/A
PRINEVILLE     FAIR      46  28  49 CALM      30.07R
KLAMATH FALLS  FAIR      59  40  49 N7        30.06F
LAKEVIEW       FAIR      55  27  33 N14       30.11S
HERMISTON      FAIR      55  40  56 S3        29.94S
PENDLETON      FAIR      60  35  39 SE12      29.96F
JOHN DAY       FAIR      54  30  40 E7        30.06F
MEACHAM        FAIR      39  29  67 CALM      30.07F
LA GRANDE      FAIR      50  27  40 NE3       30.02S
BAKER CITY     FAIR      45  34  65 E3        30.04F
BURNS          FAIR      48  28  46 W8        30.06F
ROME             N/A     51  25  36 SE7       30.04S
ONTARIO        FAIR      61  41  47 CALM      29.96F
$$




USA.gov is the U.S. government's official web portal to all federal, state and local government web resources and services.